Weather Roundup
Issued by NWS Corpus Christi, TX

Home | Current Version | Previous Version | Text Only | Print | Product List | Glossary On
Versions: 1 2 3 4 5 6 7 8 9 10 11 12 13 14 15 16 17 18 19 20 21 22 23 24 25 26 27 28 29 30 31 32 33 34 35 36 37 38 39 40 41 42 43 44 45 46 47 48 49 50
000
ASUS44 KCRP 272210
HRRCRP

SOUTH TEXAS REGIONAL WEATHER ROUNDUP
NATIONAL WEATHER SERVICE CORPUS CHRISTI TX
500 PM CDT FRI MAR 27 2015


TXZ229>244-272300-
...CORPUS CHRISTI AREA OBSERVATIONS...

CITY           SKY/WX    TMP DP  RH WIND       PRES   REMARKS
CORPUS CHRISTI MOSUNNY   77  39  25 CALM      30.13F
NAS CORPUS CHR MOSUNNY   77  40  26 N7        30.13F
ROCKPORT       SUNNY     78  39  24 W7        30.13F
KINGSVILLE NAS MOSUNNY   80  44  27 NE8       30.13F
ALICE          SUNNY     82  35  18 S3        30.12F
FALFURRIAS     SUNNY     80  31  16 CALM      30.13F
$$

...VICTORIA AREA OBSERVATIONS...

CITY           SKY/WX    TMP DP  RH WIND       PRES   REMARKS
VICTORIA       SUNNY     78  39  24 W12       30.11F
BEEVILLE       FAIR      77  39  25 W6        30.13F
PLEASANTON     SUNNY     78  38  23 SW8       30.14F
SAN ANTONIO    MOSUNNY   78  33  19 SW10G18   30.12F
$$

...LAREDO AREA OBSERVATIONS...

CITY           SKY/WX    TMP DP  RH WIND       PRES   REMARKS
LAREDO         SUNNY     79  34  19 SE3       30.15F
COTULLA        SUNNY     81  34  18 NW6       30.13F
DEL RIO        SUNNY     81  33  17 VRB7      30.09F
MCALLEN        SUNNY     81  33  17 VRB3      30.15F
HEBBRONVILLE   NOT AVBL
$$

...OTHER TEXAS OBSERVATIONS...

CITY           SKY/WX    TMP DP  RH WIND       PRES   REMARKS
BROWNSVILLE    MOSUNNY   78  39  24 VRB6      30.15F
HOUSTON        MOSUNNY   79  36  21 NW9       30.07F
COL. STATION   SUNNY     77  36  22 NW12G20   30.08F
AUSTIN         MOSUNNY   79  35  20 NW10      30.09F
WACO           SUNNY     75  43  31 N8        30.11F
FORT WORTH     PTSUNNY   68  41  37 N6        30.12F
WICHITA FALLS  MOSUNNY   64  42  44 NE8       30.15F
LUBBOCK        MOSUNNY   77  27  15 SE13      30.09F
EL PASO        SUNNY     77  20  12 SW3       30.15F
$$

...MARINE OBSERVATIONS...

STATION/POSITION TIME  SKY/WX   TEMP    WIND        PRES    VSBY  WAVE   SWELL
                                AIR SEA DIR/SP/G                  HT/PER HT/PER
                 (UTC)          (F)     (DEG/KT/KT) (MB)    (MI)  (FT/S) (FT/S)
PORT ARANSAS     2200            75 68  330/  5/  6 1021.4F
BUOY 90 E PORT A 2200            65 69  300/ 10/ 10 1021.0F         3/ 6   2/ 6
BUOY 45 SE BAFFI 2200            66 71  230/  2/  4 1020.6F         3/ 7   3/ 7
BUOY 200 E PT IS 2200            68 73  360/ 16/ 17 1019.8S         6/ 8   3/ 8
BUOY 15 E GALVES 2200            64 66  220/ 12/ 14 1018.7F         1
$$



USA.gov is the U.S. government's official web portal to all federal, state and local government web resources and services.